This is the latest recevied weather packets stored in our database for station/object W0AVQ. If no packets are shown the sender has not sent any weather packets the latest 10 day(s).
| Time | Temp. | Humidity | Pressure | Rain* | Wind** | Luminosity | Snow |
|---|---|---|---|---|---|---|---|
| 1778068701 | 8.33° C | 99% | 1015.4 hPa | 0 mm | - | 17 W/m² | - |
| 1778068399 | 8.33° C | 99% | 1015 hPa | 0 mm | - | 20 W/m² | - |
| 1778068096 | 8.33° C | 99% | 1015 hPa | 0 mm | - | 18 W/m² | - |
| 1778067794 | 8.33° C | 99% | 1015.3 hPa | 0 mm | - | 12 W/m² | - |
| 1778067492 | 8.33° C | 99% | 1015.5 hPa | 0 mm | - | 7 W/m² | - |
| 1778067190 | 8.33° C | 99% | 1015.3 hPa | 0 mm | - | 6 W/m² | - |
| 1778066886 | 8.33° C | 99% | 1014.7 hPa | 0 mm | - | 7 W/m² | - |
| 1778066583 | 8.33° C | 99% | 1014.7 hPa | 0 mm | - | 3 W/m² | - |
| 1778066281 | 8.33° C | 99% | 1014.4 hPa | 0 mm | - | 2 W/m² | - |
| 1778065979 | 8.33° C | 99% | 1014.4 hPa | 0 mm | - | 0 W/m² | - |
| 1778065676 | 8.33° C | 99% | 1014.7 hPa | 0 mm | - | 0 W/m² | - |
| 1778065373 | 7.78° C | 99% | 1014.3 hPa | 0 mm | - | 0 W/m² | - |
| 1778065069 | 7.78° C | 99% | 1014.3 hPa | 0 mm | - | 0 W/m² | - |
| 1778064766 | 7.78° C | 99% | 1014 hPa | 0 mm | - | 0 W/m² | - |
| 1778064464 | 7.78° C | 99% | 1014 hPa | 0 mm | - | 0 W/m² | - |
| 1778064162 | 7.78° C | 99% | 1013.9 hPa | 0 mm | - | 0 W/m² | - |
| 1778063859 | 7.78° C | 99% | 1014.3 hPa | 0 mm | - | 0 W/m² | - |
| 1778063556 | 7.78° C | 99% | 1013.7 hPa | 0 mm | - | 0 W/m² | - |
| 1778063254 | 7.78° C | 99% | 1013.9 hPa | 0 mm | - | 0 W/m² | - |
| 1778062951 | 7.78° C | 99% | 1013.7 hPa | 0 mm | - | 0 W/m² | - |
| 1778062648 | 7.78° C | 99% | 1013.9 hPa | 0 mm | - | 0 W/m² | - |
| 1778062344 | 7.78° C | 99% | 1014.3 hPa | 0 mm | - | 0 W/m² | - |
| 1778062042 | 7.78° C | 99% | 1014.3 hPa | 0 mm | - | 0 W/m² | - |
| 1778061741 | 7.78° C | 99% | 1014.3 hPa | 0 mm | - | 0 W/m² | - |
| 1778061439 | 7.78° C | 99% | 1014.5 hPa | 0 mm | - | 0 W/m² | - |
* Rain latest hour (hover to see other rain measurements)
** Current wind speed in m/s (hover to see current wind gust speed)